[[{"header":{"parameterUnit":"m.s-1","parameterCategory":1,"la1":30.2991,"la2":30.254,"lo1":-89.0895,"lo2":-89.0444,"dy":0.0017,"dx":0.0017,"nx":28,"ny":28,"refTime":"2024-07-02T21:00:00:Z","depth":0,"parameterNumber":2,"parameterNumberName":"U-component_of_WINDS"},"data":[0,0,0,0,0,0,0,0,0,0,0,0,0,0,0,0,0,0,0,0,0,0,0,0,0,0,0,0,0,0,0,0,0,0,0,0,0,0,0,0,0,0,0,0,0,0,0,0,0,0,0,0,0,0,0,0,0,0,1.1959,1.1959,0,1.1966,1.1966,1.1966,1.193,1.1929,1.1928,1.1927,1.1935,1.1936,1.1937,0,0,0,0,0,0,0,0,0,0,0,0,0,1.1914,1.1915,1.1959,1.1959,1.1959,1.1966,1.1966,1.1966,1.193,1.1929,1.1928,1.1927,1.1934,1.1936,1.1937,0,0,0,0,0,0,0,0,0,0,0,0,0,1.1929,1.1916,1.1959,1.1942,1.1941,1.1966,1.1966,1.1966,1.1931,1.1929,1.1927,1.1926,1.1934,1.1936,1.1937,1.1979,0,0,1.1943,1.1943,0,0,0,0,0,0,0,0,1.1928,1.1931,1.1944,1.1943,1.1942,1.1945,1.1953,1.197,1.1931,1.1934,1.1927,1.1925,1.194,1.1941,1.1945,1.198,1.198,1.1943,1.1944,1.1945,1.1945,0,0,0,0,0,0,0,1.1927,1.193,1.1962,1.1945,1.1943,1.1934,1.1934,1.1956,1.1946,1.1934,1.1931,1.1933,1.1939,1.1944,1.1945,1.198,1.1943,1.1944,1.1945,1.1946,1.2047,1.2049,0,0,0,0,0,0,1.1928,1.1929,1.1961,1.1962,1.1931,1.1936,1.1936,1.1946,1.1945,1.1944,1.1934,1.1931,1.1942,1.1943,1.1946,1.1993,1.1945,1.1946,1.1947,1.2046,1.2048,1.205,0,0,0,0,0,0,1.1928,1.1932,1.1961,1.1945,1.1948,1.1938,1.1949,1.1947,1.1952,1.1945,1.1943,1.1941,1.1941,1.1943,1.1971,1.1993,1.1947,1.1949,1.2044,1.2046,1.2049,1.2091,0,0,0,0,0,0,1.1926,1.1931,1.1947,1.1946,1.1949,1.1986,1.1951,1.1948,1.1955,1.1951,1.1952,1.195,1.1939,1.1968,1.1973,1.1995,1.195,1.2042,1.2045,1.2048,1.2087,1.2094,1.21,0,0,0,0,0,1.1925,1.1959,1.1948,1.1952,1.1969,1.1988,1.199,1.1976,1.1957,1.1973,1.1968,1.195,1.199,1.1971,1.1976,1.1999,1.204,1.2044,1.2048,1.2084,1.2093,1.21,0,0,0,0,0,0,1.1964,1.1959,1.1947,1.1981,1.1985,1.1982,1.2001,1.1986,1.1996,1.1992,1.1975,1.1975,1.2006,1.2005,1.1984,1.2039,1.2012,1.2017,1.2038,1.2046,1.2053,1.2052,1.1951,0,0,0,0,0,1.1977,1.1993,1.1987,1.2018,1.2021,1.2011,1.2019,1.2008,1.2011,1.2013,1.2011,1.2015,1.2028,1.2037,1.2049,1.2087,1.2086,1.2105,1.2112,1.2117,1.2121,1.214,1.2148,1.2062,1.2062,1.2062,0,0,1.2003,1.2002,1.2013,1.2026,1.2028,1.2044,1.2012,1.2032,1.2044,1.2016,1.2041,1.204,1.2043,1.2076,1.209,1.2077,1.2145,1.2122,1.2126,1.2127,1.2145,1.2153,1.216,1.2064,1.2064,1.2063,0,0,1.206,1.2061,1.2086,1.2089,1.2092,1.2084,1.2091,1.2089,1.2087,1.2112,1.2092,1.2106,1.213,1.2133,1.2137,1.2194,1.2178,1.2199,1.2232,1.2251,1.2258,1.2264,1.2283,1.229,1.2203,1.2203,1.2203,0,1.2092,1.2116,1.2101,1.2122,1.2128,1.2103,1.2128,1.2131,1.2138,1.2143,1.2128,1.2156,1.2157,1.2189,1.2203,1.2208,1.2214,1.2198,1.2258,1.2264,1.2269,1.2287,1.2295,1.2205,1.2205,1.2205,1.2205,0,1.2155,1.2172,1.2193,1.2199,1.2208,1.2231,1.2219,1.2229,1.2218,1.2212,1.2238,1.2238,1.2249,1.2256,1.2246,1.2287,1.2278,1.2261,1.2233,1.228,1.2297,1.2304,1.2209,1.2208,1.2207,1.2207,0,0,1.2237,1.2234,1.2242,1.2244,1.2245,1.2258,1.228,1.229,1.2299,1.2305,1.2322,1.2342,1.2326,1.2331,1.232,1.2337,1.2381,1.2317,1.2317,1.2328,1.2425,1.2438,1.2446,1.237,1.2371,1.2372,1.2425,0,1.2291,1.2327,1.2314,1.2351,1.2366,1.2343,1.2362,1.2364,1.236,1.2372,1.2367,1.2381,1.2359,1.2362,1.2377,1.2372,1.24,1.2368,1.2385,1.2386,1.2384,1.2455,1.2469,1.2518,1.2431,1.2432,1.2433,0,1.2359,1.2366,1.2405,1.2403,1.2408,1.2425,1.2434,1.2446,1.2448,1.2444,1.2449,1.2435,1.2456,1.2429,1.2456,1.2435,1.2442,1.244,1.2442,1.2442,1.2412,1.2457,1.2534,1.2541,1.2444,1.2443,1.2442,0,1.2413,1.2433,1.2458,1.2461,1.2459,1.2472,1.2472,1.2472,1.2479,1.2487,1.2491,1.2501,1.2506,1.2514,1.2502,1.2484,1.2532,1.2504,1.2528,1.2528,1.2539,1.2538,1.2617,1.2544,1.2544,1.2544,1.2544,0,1.2474,1.2498,1.2482,1.2498,1.2524,1.2509,1.2535,1.2532,1.2533,1.2548,1.2529,1.2543,1.2527,1.254,1.2531,1.2555,1.2558,1.2554,1.2552,1.2556,1.2556,1.2559,1.2555,1.2546,1.2545,1.2545,1.2545,0,1.2538,1.2529,1.2554,1.2551,1.255,1.257,1.2566,1.258,1.2574,1.2593,1.2596,1.2587,1.26,1.259,1.2604,1.2598,1.2629,1.2622,1.2628,1.2626,1.265,1.2648,1.2733,1.2743,1.2665,1.2666,1.2666,0,1.2578,1.2595,1.2593,1.2601,1.2602,1.2616,1.2623,1.2609,1.2616,1.262,1.2634,1.2646,1.2654,1.2677,1.2671,1.2682,1.2674,1.2703,1.2675,1.2679,1.2673,1.2672,1.2673,1.2709,1.2709,1.271,1.2711,0,1.2648,1.2642,1.2652,1.2661,1.267,1.2676,1.2681,1.2688,1.2674,1.2684,1.2697,1.2704,1.2717,1.2729,1.2737,1.2737,1.2721,1.272,1.2726,1.2729,1.2732,1.273,1.2642,1.2718,1.2717,1.2716,1.2716,1.2716,1.27,1.2715,1.2715,1.2727,1.2729,1.2734,1.2747,1.2742,1.2753,1.2762,1.2754,1.277,1.2771,1.278,1.2782,1.2794,1.2782,1.2791,1.2793,1.2795,1.2798,1.2731,1.2796,1.2796,1.2795,1.2795,1.2795,0,1.2769,1.2768,1.2779,1.2786,1.2795,1.278,1.2784,1.2793,1.2807,1.281,1.2818,1.2834,1.2845,1.284,1.285,1.2861,1.2854,1.2864,1.2862,1.2862,1.2809,1.2802,1.2869,1.2869,1.2869,1.2869,1.2869,1.2869,1.2805,1.2828,1.2823,1.2847,1.2846,1.2861,1.2865,1.2869,1.2871,1.2888,1.2897,1.2894,1.2894,1.2903,1.2913,1.2911,1.2915,1.2928,1.2923,1.2873,1.2866,1.2859,1.2853,1.2929,1.2929,1.2975,1.2976,1.2976]},{"header":{"parameterUnit":"m.s-1","parameterCategory":1,"la1":30.2991,"la2":30.254,"lo1":-89.0895,"lo2":-89.0444,"dy":0.0017,"dx":0.0017,"nx":28,"ny":28,"refTime":"2024-07-02T21:00:00:Z","depth":0,"parameterNumber":3,"parameterNumberName":"V-component_of_WINDS"},"data":[0,0,0,0,0,0,0,0,0,0,0,0,0,0,0,0,0,0,0,0,0,0,0,0,0,0,0,0,0,0,0,0,0,0,0,0,0,0,0,0,0,0,0,0,0,0,0,0,0,0,0,0,0,0,0,0,0,0,4.3472,4.3472,0,4.3476,4.3476,4.3476,4.3447,4.3447,4.3446,4.3445,4.3448,4.3449,4.345,0,0,0,0,0,0,0,0,0,0,0,0,0,4.3439,4.344,4.3472,4.3472,4.3472,4.3476,4.3476,4.3476,4.3448,4.3447,4.3446,4.3445,4.3448,4.3449,4.345,0,0,0,0,0,0,0,0,0,0,0,0,0,4.3449,4.344,4.3472,4.3459,4.3457,4.3476,4.3476,4.3476,4.3448,4.3447,4.3445,4.3444,4.3447,4.3449,4.345,4.3482,0,0,4.3454,4.3454,0,0,0,0,0,0,0,0,4.3449,4.3451,4.3461,4.346,4.3458,4.346,4.3466,4.3478,4.3448,4.3451,4.3445,4.3444,4.3453,4.3454,4.3457,4.3482,4.3482,4.3454,4.3455,4.3455,4.3455,0,0,0,0,0,0,0,4.3448,4.345,4.3474,4.3461,4.3459,4.3452,4.3452,4.3468,4.3459,4.3451,4.3449,4.345,4.3452,4.3456,4.3457,4.3482,4.3454,4.3455,4.3456,4.3456,4.3534,4.3535,0,0,0,0,0,0,4.345,4.345,4.3474,4.3474,4.3451,4.3454,4.3454,4.3461,4.3459,4.3457,4.3451,4.3448,4.3454,4.3455,4.3457,4.3494,4.3455,4.3456,4.3457,4.3532,4.3534,4.3535,0,0,0,0,0,0,4.3449,4.3452,4.3474,4.3461,4.3464,4.3455,4.3464,4.3461,4.3465,4.3459,4.3457,4.3456,4.3453,4.3455,4.3476,4.3494,4.3457,4.3458,4.3531,4.3533,4.3535,4.3569,0,0,0,0,0,0,4.3448,4.3452,4.3464,4.3462,4.3464,4.3493,4.3465,4.3462,4.3468,4.3464,4.3463,4.3462,4.3453,4.3474,4.3477,4.3495,4.3459,4.3529,4.3532,4.3534,4.3566,4.3572,4.3577,0,0,0,0,0,4.3447,4.3473,4.3465,4.3468,4.3479,4.3494,4.3495,4.3484,4.3469,4.3481,4.3477,4.3462,4.3492,4.3477,4.348,4.3498,4.3528,4.3531,4.3534,4.3564,4.3571,4.3576,0,0,0,0,0,0,4.3477,4.3472,4.3463,4.3489,4.3492,4.3489,4.3504,4.3492,4.3499,4.3496,4.3481,4.3481,4.3505,4.3503,4.3487,4.3529,4.3507,4.3511,4.3529,4.3535,4.354,4.354,4.346,0,0,0,0,0,4.3486,4.3499,4.3494,4.3518,4.352,4.3512,4.3518,4.3509,4.3511,4.3512,4.351,4.3512,4.3522,4.3529,4.3537,4.3566,4.3565,4.358,4.3586,4.359,4.3593,4.3608,4.3615,4.3545,4.3545,4.3545,0,0,4.3506,4.3506,4.3514,4.3524,4.3525,4.3538,4.3513,4.3527,4.3537,4.3514,4.3534,4.3532,4.3534,4.3559,4.357,4.3559,4.3612,4.3594,4.3597,4.3598,4.3612,4.3618,4.3624,4.3547,4.3547,4.3547,0,0,4.3549,4.355,4.357,4.3572,4.3574,4.3569,4.3574,4.3572,4.3571,4.359,4.3574,4.3585,4.3602,4.3604,4.3607,4.3652,4.3639,4.3656,4.3683,4.3698,4.3703,4.3708,4.3724,4.3729,4.3659,4.3659,4.3659,0,4.3573,4.3592,4.3581,4.3597,4.3602,4.3583,4.3603,4.3605,4.3611,4.3614,4.3602,4.3624,4.3624,4.3649,4.366,4.3663,4.3668,4.3655,4.3703,4.3708,4.3712,4.3727,4.3733,4.3661,4.3661,4.3661,4.366,0,4.3622,4.3635,4.3651,4.3657,4.3664,4.3682,4.3673,4.3681,4.3673,4.3669,4.3689,4.3689,4.3697,4.3703,4.3694,4.3727,4.372,4.3706,4.3683,4.3721,4.3735,4.374,4.3664,4.3663,4.3663,4.3662,0,0,4.3682,4.3683,4.3689,4.3691,4.3693,4.3703,4.3721,4.3729,4.3737,4.3741,4.3755,4.3771,4.3758,4.3762,4.3753,4.3767,4.3802,4.3751,4.3751,4.376,4.3838,4.3848,4.3855,4.3794,4.3795,4.3795,4.3838,0,4.3723,4.3753,4.3744,4.3774,4.3786,4.3769,4.3784,4.3787,4.3784,4.3794,4.379,4.3802,4.3784,4.3786,4.3799,4.3795,4.3817,4.3792,4.3806,4.3806,4.3805,4.3862,4.3873,4.3912,4.3843,4.3844,4.3845,0,4.3775,4.3783,4.3814,4.3814,4.3819,4.3833,4.384,4.385,4.3853,4.385,4.3855,4.3844,4.3861,4.384,4.3862,4.3845,4.3851,4.385,4.3851,4.3851,4.3827,4.3863,4.3925,4.3931,4.3853,4.3852,4.3852,0,4.3815,4.3833,4.3854,4.3857,4.3858,4.3868,4.3869,4.3871,4.3877,4.3884,4.3888,4.3896,4.3901,4.3907,4.3899,4.3884,4.3923,4.3901,4.3921,4.3921,4.3929,4.3928,4.3991,4.3933,4.3933,4.3933,4.3933,0,4.3862,4.3882,4.3872,4.3885,4.3907,4.3897,4.3918,4.3917,4.3919,4.3931,4.3917,4.3929,4.3918,4.3928,4.3922,4.3942,4.3944,4.3942,4.3939,4.3942,4.3943,4.3945,4.3942,4.3935,4.3934,4.3934,4.3934,0,4.391,4.3905,4.3926,4.3926,4.3927,4.3943,4.3942,4.3954,4.3951,4.3966,4.3969,4.3964,4.3975,4.3968,4.398,4.3976,4.4002,4.3996,4.4001,4.3999,4.4019,4.4017,4.4085,4.4093,4.4031,4.4031,4.4032,0,4.394,4.3955,4.3957,4.3964,4.3966,4.3978,4.3985,4.3976,4.3983,4.3988,4.3999,4.401,4.4018,4.4038,4.4034,4.4043,4.4038,4.4061,4.4039,4.4041,4.4037,4.4036,4.4037,4.4065,4.4066,4.4066,4.4067,0,4.3993,4.399,4.4,4.4009,4.4018,4.4024,4.403,4.4037,4.4028,4.4037,4.4049,4.4055,4.4068,4.4079,4.4087,4.4087,4.4076,4.4074,4.4079,4.4082,4.4084,4.4082,4.4012,4.4072,4.4072,4.4071,4.4071,4.4071,4.4032,4.4045,4.4049,4.406,4.4064,4.407,4.4081,4.4079,4.4089,4.4099,4.4093,4.4108,4.4111,4.412,4.4123,4.4134,4.4124,4.4131,4.4133,4.4135,4.4137,4.4083,4.4135,4.4135,4.4135,4.4135,4.4135,0,4.4085,4.4086,4.4097,4.4106,4.4115,4.4105,4.411,4.4119,4.4132,4.4136,4.4145,4.4159,4.417,4.4168,4.4177,4.4187,4.4182,4.4189,4.4188,4.4188,4.4145,4.414,4.4193,4.4193,4.4193,4.4193,4.4193,4.4193,4.4113,4.4133,4.4131,4.4153,4.4155,4.4169,4.4173,4.4179,4.4182,4.4199,4.4208,4.4207,4.4209,4.4218,4.4228,4.4227,4.4231,4.4241,4.4238,4.4197,4.4191,4.4186,4.4181,4.4242,4.4242,4.428,4.428,4.428]}]]